Showing default

YAM-7, 60504

Orbit data source: Space-Track

YAM-7, 60504 is an American payload satellite in SSO that was launched on Fri, 16 Aug 2024 UTC via an FALCON 9 launch vehicle from the Air Force Western Test Range (AFWTR). Payload-class satellites include a variety of spacecraft equipped with specific instruments for various scientific and technological missions. These include communications satellites like Starlink; space stations such as the ISS; scientific satellites like the Hubble; Earth observation satellites from companies like Planet Labs, Umbra, and HawkEye 360; GPS; miniature CubeSats for education and research; and military/defense satellites.

Loading next visibility...
Identifier
60504, 2024-149AN
Orbit
SSO
Last TLE update
4 hours ago
Origin
Manufacturer
LeoStella
Mission
Operational Commercial Technology
Bus & Motor
YAM, Unknown motor
Mass
91 kg wet, 91 kg dry
Launch date (UTC)
2024-08-16 (11 months ago)
Launch vehicle
FALCON 9
Launch site
Air Force Western Test Range (AFWTR)
Object type
Payload
Rocket body
Debris
Shape & HBR
Box, 0.9 m
Radar Cross Section
0.875 m², Medium (>0.1 m² and < 1m²)

Expand to show TLE details & history

TLE from 4 hours ago
0 YAM-7
1 60504U 24149AN  25190.20756998  .00004293  00000-0  17167-3 0  9991
2 60504  97.4118 267.7635 0005395  78.0069 282.1773 15.25622676 49651
Epoch: 2025-07-09T04:58Z
TLE epoch observation values (Epoch: 2025-07-09T04:58:54.046Z)
Latitude
-0.00007°
Longitude
-94.35319°
Altitude
491.234 km
Speed
7.62 km/s
True Right ascension
17h 51m 03s
True Declination
0° 00' 00"
Sunlit
Object was in full shadow at epoch
Visualization orbit readout
Latitude
48.76514°
Longitude
94.28797°
Altitude
494.436 km
Speed
7.624 km/s
Apparent Right ascension
07h 41m 34s
Apparent Declination
6° 50' 10"
Sunlit
Object is in daylight
Visualization observer readout
Local Sidereal Time
20:51:45
Azimuth
23.187° NE
Elevation
-40.521°
Doppler factor
1
Orbital elements
Apogee altitude
489.578 km
Perigee altitude
482.172 km
Semi-major axis
6,864.012 km
Eccentricity
0.00054
Inclination
97.4118°
RAAN
267.7635°
Arg. of periapsis
78.0069°
True anomaly
Unknown
Mean anomaly
282.1773°
Eccentric anomaly
Unknown
Mean motion
3.8166 °/min
Orbital period
94.32 mins
BSTAR
0.00017167
Loading maneuver chart data...
Loading SW <> Apogee altitude chart data...
Loading historical data...
Loading historical data...
Loading historical data...
Loading historical data...
Loading historical data...
Loading historical data...
Loading historical data...

YAM-7 Visibility forecast

Observer location: undefined°, undefined°

Span
Click to sort rows by Start time (UTC) header in descending order
Start Az.
Max El. time (UTC)
Max El. Az.
Max El.
End time (UTC)
End Az.
6 mins2025-07-09 18:08:02.918Z8.794° NNE2025-07-09 18:11:02.918Z275.941° WNW44.477°2025-07-09 18:14:02.918Z197.362° SSW
4 mins2025-07-10 04:45:02.918Z118.05° SE2025-07-10 04:47:02.918Z54.215° ENE27.854°2025-07-10 04:49:02.918Z13.435° NNE
|